This is the latest recevied weather packets stored in our database for station/object AE5HO. If no packets are shown the sender has not sent any weather packets the latest 10 day(s).
| Time | Temp. | Humidity | Pressure | Rain* | Wind** | Luminosity | Snow |
|---|---|---|---|---|---|---|---|
| 1778091392 | 14.44° C | 80% | 1014 hPa | 0 mm | - | 184 W/m² | - |
| 1778091089 | 14.44° C | 79% | 1013.8 hPa | 0 mm | - | 213 W/m² | - |
| 1778090786 | 14.44° C | 81% | 1014.2 hPa | 0 mm | - | 168 W/m² | - |
| 1778090482 | 14.44° C | 80% | 1014.4 hPa | 0 mm | - | 136 W/m² | - |
| 1778090179 | 14.44° C | 81% | 1014.8 hPa | 0 mm | - | 219 W/m² | - |
| 1778089874 | 13.89° C | 83% | 1014.6 hPa | 0 mm | - | 228 W/m² | - |
| 1778089574 | 13.89° C | 84% | 1014.6 hPa | 0 mm | - | 136 W/m² | - |
| 1778089270 | 13.33° C | 84% | 1014.5 hPa | 0 mm | - | 105 W/m² | - |
| 1778088968 | 13.33° C | 84% | 1014.9 hPa | 0 mm | - | 89 W/m² | - |
| 1778088664 | 13.33° C | 85% | 1014.7 hPa | 0 mm | - | 114 W/m² | - |
| 1778088362 | 12.78° C | 85% | 1014.5 hPa | 0 mm | - | 86 W/m² | - |
| 1778088058 | 12.78° C | 86% | 1014.4 hPa | 0 mm | - | 70 W/m² | - |
| 1778087755 | 12.78° C | 86% | 1014.3 hPa | 0 mm | - | 78 W/m² | - |
| 1778087453 | 12.78° C | 87% | 1014.7 hPa | 0 mm | - | 79 W/m² | - |
| 1778087150 | 12.78° C | 87% | 1014.9 hPa | 0 mm | - | 82 W/m² | - |
| 1778086847 | 12.78° C | 88% | 1015 hPa | 0 mm | - | 71 W/m² | - |
| 1778086546 | 12.78° C | 88% | 1015.1 hPa | 0 mm | - | 59 W/m² | - |
| 1778086242 | 12.22° C | 88% | 1014.9 hPa | 0 mm | - | 57 W/m² | - |
| 1778085939 | 12.78° C | 90% | 1015.2 hPa | 0 mm | - | 43 W/m² | - |
| 1778085636 | 12.78° C | 90% | 1015.1 hPa | 0 mm | - | 44 W/m² | - |
| 1778085332 | 12.22° C | 90% | 1015.2 hPa | 0 mm | - | 42 W/m² | - |
| 1778085028 | 12.78° C | 91% | 1015.3 hPa | 0 mm | - | 45 W/m² | - |
| 1778084724 | 12.78° C | 91% | 1015.4 hPa | 0 mm | - | 40 W/m² | - |
| 1778084421 | 12.78° C | 90% | 1015.8 hPa | 0 mm | - | 26 W/m² | - |
| 1778084119 | 12.78° C | 91% | 1015.6 hPa | 0 mm | - | 35 W/m² | - |
* Rain latest hour (hover to see other rain measurements)
** Current wind speed in m/s (hover to see current wind gust speed)